When you browse on this site, cookies collect data to enhance your experience and personalize the content and advertising you see.
Visit our Privacy Policy to learn more. By continuing to use the site, you agree to this use of cookies and data.
  • In Latvia
  • List of Countries
  • For 7 days
  • Water Temperature
  • Satellite Maps
  • Weather Map
  • Weather Widgets
  • user-avatar
    Login

    Hourly Weather Cleveland

    Today, 19 July, Friday

    Time Temperature Precipitation Wind Pressure Humidity
    00:00 +29°C° 0 mm 6 mps 736 mmHg 72%
    01:00 +29°C° 0 mm 6 mps 735 mmHg 71%
    02:00 +29°C° 0 mm 6 mps 735 mmHg 71%
    03:00 +28°C° 0 mm 5 mps 735 mmHg 70%
    04:00 +28°C° 0 mm 5 mps 735 mmHg 73%
    05:00 +28°C° 0 mm 6 mps 736 mmHg 76%
    06:00 +27°C° 0 mm 6 mps 736 mmHg 79%
    07:00 +29°C° 0 mm 6 mps 736 mmHg 76%
    08:00 +30°C° 0 mm 7 mps 736 mmHg 73%
    09:00 +33°C° 0 mm 7 mps 737 mmHg 70%
    10:00 +34°C° 0 mm 7 mps 737 mmHg 66%
    11:00 +35°C° 0 mm 7 mps 737 mmHg 62%
    12:00 +36°C° 0 mm 7 mps 737 mmHg 57%
    13:00 +38°C° 0 mm 7 mps 736 mmHg 54%
    14:00 +38°C° 0 mm 7 mps 736 mmHg 51%
    15:00 +39°C° 0 mm 7 mps 736 mmHg 48%
    16:00 +38°C° 0 mm 7 mps 735 mmHg 52%
    17:00 +36°C° 0 mm 6 mps 735 mmHg 56%
    18:00 +35°C° 0 mm 6 mps 735 mmHg 59%
    19:00 +34°C° 0 mm 6 mps 735 mmHg 62%
    20:00 +33°C° 0 mm 7 mps 736 mmHg 65%
    21:00 +30°C° 0 mm 7 mps 736 mmHg 68%
    22:00 +30°C° 0 mm 7 mps 736 mmHg 69%
    23:00 +29°C° 0 mm 7 mps 736 mmHg 69%

    Tomorrow, 20 July, Saturday

    Time Temperature Precipitation Wind Pressure Humidity
    00:00 +29°C° 0 mm 7 mps 736 mmHg 70%
    01:00 +28°C° 0 mm 6 mps 735 mmHg 69%
    02:00 +28°C° 0 mm 6 mps 735 mmHg 68%
    03:00 +28°C° 0 mm 6 mps 735 mmHg 68%
    04:00 +28°C° 0 mm 6 mps 735 mmHg 71%
    05:00 +27°C° 0 mm 6 mps 735 mmHg 74%
    06:00 +27°C° 0 mm 6 mps 735 mmHg 77%
    07:00 +28°C° 0 mm 6 mps 736 mmHg 75%
    08:00 +30°C° 0 mm 7 mps 736 mmHg 73%
    09:00 +32°C° 0 mm 7 mps 736 mmHg 71%
    10:00 +33°C° 0 mm 7 mps 736 mmHg 67%
    11:00 +35°C° 0 mm 7 mps 736 mmHg 63%
    12:00 +36°C° 0 mm 7 mps 736 mmHg 59%
    13:00 +37°C° 0 mm 8 mps 736 mmHg 57%
    14:00 +38°C° 0 mm 8 mps 736 mmHg 56%
    15:00 +38°C° 0 mm 8 mps 735 mmHg 54%
    16:00 +36°C° 0 mm 7 mps 735 mmHg 57%
    17:00 +35°C° 0 mm 7 mps 735 mmHg 61%
    18:00 +34°C° 0 mm 6 mps 735 mmHg 65%
    19:00 +33°C° 0 mm 6 mps 735 mmHg 66%
    20:00 +32°C° 0 mm 6 mps 735 mmHg 67%
    21:00 +30°C° 0 mm 6 mps 736 mmHg 69%
    22:00 +29°C° 0 mm 6 mps 736 mmHg 70%
    23:00 +29°C° 0 mm 6 mps 736 mmHg 71%

    Day after tomorrow, 21 July, Sunday

    Time Temperature Precipitation Wind Pressure Humidity
    00:00 +28°C° 0 mm 6 mps 736 mmHg 71%
    01:00 +27°C° 0 mm 5 mps 736 mmHg 73%
    02:00 +27°C° 0 mm 4 mps 736 mmHg 74%
    03:00 +26°C° 0 mm 4 mps 736 mmHg 75%
    04:00 +26°C° 0 mm 4 mps 736 mmHg 75%
    05:00 +26°C° 0 mm 4 mps 736 mmHg 75%
    06:00 +26°C° 0 mm 4 mps 736 mmHg 75%
    07:00 +27°C° 0 mm 4 mps 736 mmHg 72%
    08:00 +29°C° 0 mm 5 mps 737 mmHg 69%
    09:00 +32°C° 0 mm 6 mps 737 mmHg 66%
    10:00 +33°C° 0 mm 5 mps 737 mmHg 62%
    11:00 +35°C° 0 mm 5 mps 737 mmHg 57%
    12:00 +36°C° 0 mm 5 mps 737 mmHg 53%
    13:00 +37°C° 0 mm 5 mps 737 mmHg 50%
    14:00 +38°C° 0 mm 4 mps 737 mmHg 47%
    15:00 +40°C° 0 mm 4 mps 736 mmHg 45%
    16:00 +39°C° 0 mm 5 mps 736 mmHg 48%
    17:00 +37°C° 0 mm 5 mps 736 mmHg 52%
    18:00 +36°C° 0 mm 6 mps 736 mmHg 56%
    19:00 +33°C° 0.9 mm 6 mps 737 mmHg 67%
    20:00 +29°C° 0.9 mm 7 mps 737 mmHg 78%
    21:00 +24°C° 0.9 mm 8 mps 738 mmHg 89%
    22:00 +24°C° 0.5 mm 7 mps 738 mmHg 90%
    23:00 +23°C° 0.5 mm 6 mps 739 mmHg 92%

    22 July, Monday

    Time Temperature Precipitation Wind Pressure Humidity
    00:00 +22°C° 0.5 mm 5 mps 739 mmHg 93%
    01:00 +22°C° 0.1 mm 5 mps 740 mmHg 93%
    02:00 +21°C° 0.1 mm 5 mps 740 mmHg 92%
    03:00 +21°C° 0.1 mm 6 mps 740 mmHg 92%
    04:00 +20°C° 0 mm 6 mps 740 mmHg 91%
    05:00 +20°C° 0 mm 6 mps 741 mmHg 90%
    06:00 +19°C° 0 mm 6 mps 741 mmHg 89%
    07:00 +21°C° 0 mm 6 mps 742 mmHg 84%
    08:00 +22°C° 0 mm 7 mps 742 mmHg 78%
    09:00 +24°C° 0 mm 7 mps 743 mmHg 73%
    10:00 +26°C° 0 mm 7 mps 743 mmHg 69%
    11:00 +27°C° 0 mm 7 mps 743 mmHg 66%
    12:00 +28°C° 0 mm 7 mps 743 mmHg 62%
    13:00 +28°C° 0 mm 7 mps 742 mmHg 61%
    14:00 +29°C° 0 mm 7 mps 742 mmHg 60%
    15:00 +29°C° 0 mm 7 mps 742 mmHg 58%
    16:00 +28°C° 0 mm 6 mps 742 mmHg 61%
    17:00 +28°C° 0 mm 6 mps 742 mmHg 63%
    18:00 +27°C° 0 mm 5 mps 741 mmHg 66%
    19:00 +26°C° 0 mm 5 mps 742 mmHg 72%
    20:00 +25°C° 0 mm 4 mps 742 mmHg 78%
    21:00 +22°C° 0 mm 4 mps 742 mmHg 84%
    22:00 +21°C° 0 mm 4 mps 743 mmHg 86%
    23:00 +21°C° 0 mm 3 mps 743 mmHg 88%

    23 July, Tuesday

    Time Temperature Precipitation Wind Pressure Humidity
    00:00 +20°C° 0 mm 3 mps 743 mmHg 90%
    01:00 +19°C° 0 mm 4 mps 743 mmHg 91%
    02:00 +19°C° 0 mm 4 mps 743 mmHg 92%
    03:00 +19°C° 0 mm 4 mps 743 mmHg 93%
    04:00 +18°C° 0 mm 4 mps 743 mmHg 92%
    05:00 +18°C° 0 mm 4 mps 744 mmHg 91%
    06:00 +17°C° 0 mm 3 mps 744 mmHg 90%
    07:00 +19°C° 0 mm 4 mps 744 mmHg 82%
    08:00 +21°C° 0 mm 4 mps 744 mmHg 73%
    09:00 +22°C° 0 mm 4 mps 745 mmHg 64%
    10:00 +25°C° 0 mm 4 mps 744 mmHg 58%
    11:00 +26°C° 0 mm 4 mps 744 mmHg 52%
    12:00 +27°C° 0 mm 4 mps 744 mmHg 46%
    13:00 +27°C° 0 mm 4 mps 744 mmHg 46%
    14:00 +27°C° 0 mm 4 mps 743 mmHg 45%
    15:00 +28°C° 0 mm 4 mps 743 mmHg 45%
    16:00 +27°C° 0 mm 4 mps 742 mmHg 50%
    17:00 +27°C° 0 mm 4 mps 742 mmHg 54%
    18:00 +26°C° 0 mm 3 mps 742 mmHg 59%
    19:00 +24°C° 0 mm 3 mps 742 mmHg 65%
    20:00 +21°C° 0 mm 3 mps 742 mmHg 71%
    21:00 +20°C° 0 mm 2 mps 742 mmHg 76%
    22:00 +19°C° 0 mm 2 mps 742 mmHg 79%
    23:00 +18°C° 0 mm 2 mps 742 mmHg 81%

    24 July, Wednesday

    Time Temperature Precipitation Wind Pressure Humidity
    00:00 +18°C° 0 mm 2 mps 742 mmHg 84%
    01:00 +18°C° 0 mm 2 mps 742 mmHg 86%
    02:00 +17°C° 0 mm 2 mps 742 mmHg 87%
    03:00 +17°C° 0 mm 2 mps 741 mmHg 89%
    04:00 +17°C° 0 mm 2 mps 742 mmHg 90%
    05:00 +17°C° 0 mm 2 mps 742 mmHg 91%
    06:00 +17°C° 0 mm 2 mps 742 mmHg 92%
    07:00 +19°C° 0 mm 2 mps 742 mmHg 83%
    08:00 +21°C° 0 mm 2 mps 743 mmHg 74%
    09:00 +24°C° 0 mm 2 mps 743 mmHg 65%
    10:00 +26°C° 0 mm 2 mps 743 mmHg 59%
    11:00 +27°C° 0 mm 2 mps 743 mmHg 53%
    12:00 +28°C° 0 mm 2 mps 743 mmHg 47%
    13:00 +29°C° 0 mm 2 mps 742 mmHg 45%
    14:00 +29°C° 0 mm 2 mps 741 mmHg 43%
    15:00 +30°C° 0 mm 2 mps 741 mmHg 41%
    16:00 +30°C° 0 mm 2 mps 741 mmHg 44%
    17:00 +29°C° 0 mm 2 mps 740 mmHg 48%
    18:00 +29°C° 0 mm 2 mps 740 mmHg 51%
    19:00 +27°C° 0 mm 2 mps 740 mmHg 55%
    20:00 +25°C° 0 mm 2 mps 740 mmHg 59%
    21:00 +21°C° 0 mm 2 mps 740 mmHg 62%
    22:00 +21°C° 0 mm 2 mps 740 mmHg 65%
    23:00 +20°C° 0 mm 2 mps 740 mmHg 68%
    Show more